Date String (YYYY-MM-DD hh:mm:ss) UTC,Instrument flags,Ambient pressure (hPa),Sample flow (lpm),Bypass flow (lpm),Sample temperature (°C),Ambient temperature (°C),ASC tube jacket temperature (°C),LED temperature (°C),Box temperature (°C),Sample RH (%),Span deviation,Mass concentration (μg/m³),Mass concentration (μg/m³),Mass concentration (μg/m³)
DateTimeUTC,F1_M11,P_M11,Q1_M11,Q2_M11,T1_M11,T2_M11,T3_M11,T4_M11,T5_M11,U1_M11,ZSPAN_M11,X2_M11,X0_M11,X1_M11
2022-01-05 13:00:00,,0819.9,5.00,0.00,22.7,23.2,00.0,31.5,24.6,09.3,0000.0,0002.69,0004.77,0002.22
2022-01-05 13:01:00,,0819.8,5.01,0.00,22.7,23.0,00.0,31.6,24.5,09.3,0000.0,0002.70,0004.98,0002.24
2022-01-05 13:02:00,,0819.6,5.00,0.00,22.7,22.7,00.0,31.6,24.5,09.3,0000.0,0002.72,0004.98,0002.27
2022-01-05 13:03:00,,0819.6,5.00,0.00,22.7,22.5,00.0,31.6,24.4,09.3,0000.0,0002.72,0005.03,0002.28
2022-01-05 13:04:00,,0819.8,5.00,0.00,22.6,22.3,00.0,31.6,24.3,09.3,0000.0,0002.76,0005.46,0002.31
2022-01-05 13:05:00,,0819.8,5.01,0.00,22.6,22.2,00.0,31.5,24.3,09.4,0000.0,0002.74,0005.47,0002.33
2022-01-05 13:06:00,,0819.8,4.99,0.00,22.6,22.1,00.0,31.5,24.2,09.4,0000.0,0002.73,0005.35,0002.33
2022-01-05 13:07:00,,0819.9,5.01,0.00,22.5,21.9,00.0,31.5,24.2,09.4,0000.0,0002.73,0005.74,0002.32
2022-01-05 13:08:00,,0820.0,5.00,0.00,22.5,21.8,00.0,31.5,24.1,09.4,0000.0,0002.72,0005.88,0002.33
2022-01-05 13:09:00,,0819.9,4.99,0.00,22.5,21.7,00.0,31.5,24.1,09.5,0000.0,0002.71,0005.31,0002.35
2022-01-05 13:10:00,,0819.8,5.00,0.00,22.4,21.7,00.0,31.5,24.0,09.5,0000.0,0002.80,0005.46,0002.40
2022-01-05 13:11:00,,0819.7,5.02,0.00,22.4,21.6,00.0,31.5,24.0,09.6,0000.0,0002.86,0005.79,0002.45
2022-01-05 13:12:00,,0819.7,4.99,0.00,22.4,21.5,00.0,31.5,24.0,09.6,0000.0,0002.92,0006.55,0002.50
2022-01-05 13:13:00,,0819.8,5.00,0.00,22.4,21.9,00.0,31.5,24.0,09.7,0000.0,0003.02,0007.34,0002.56
2022-01-05 13:14:00,,0819.8,5.01,0.00,22.5,22.6,00.0,31.5,24.3,09.6,0000.0,0003.09,0007.79,0002.58
2022-01-05 13:15:00,,0819.7,4.99,0.00,22.6,23.2,00.0,31.5,24.5,09.5,0000.0,0003.06,0007.57,0002.55
2022-01-05 13:16:00,,0819.6,5.01,0.00,22.7,23.1,00.0,31.5,24.6,09.5,0000.0,0003.06,0007.54,0002.54
2022-01-05 13:17:00,,0819.5,5.01,0.00,22.7,22.8,00.0,31.6,24.5,09.4,0000.0,0003.07,0007.59,0002.54
2022-01-05 13:18:00,,0819.7,4.98,0.00,22.7,22.6,00.0,31.6,24.4,09.4,0000.0,0003.10,0007.39,0002.55
2022-01-05 13:19:00,,0819.6,5.01,0.00,22.7,22.4,00.0,31.6,24.4,09.4,0000.0,0003.09,0007.28,0002.56
2022-01-05 13:20:00,,0819.5,5.01,0.00,22.6,22.3,00.0,31.6,24.3,09.4,0000.0,0003.09,0007.00,0002.56
2022-01-05 13:21:00,,0819.5,5.00,0.00,22.6,22.1,00.0,31.6,24.3,09.5,0000.0,0003.09,0006.98,0002.55
2022-01-05 13:22:00,,0819.5,5.00,0.00,22.6,22.0,00.0,31.5,24.2,09.5,0000.0,0003.08,0006.70,0002.54
2022-01-05 13:23:00,,0819.6,5.00,0.00,22.5,21.8,00.0,31.5,24.2,09.5,0000.0,0003.04,0005.66,0002.50
2022-01-05 13:24:00,,0819.7,5.01,0.00,22.5,21.8,00.0,31.5,24.1,09.5,0000.0,0002.94,0004.86,0002.42
2022-01-05 13:25:00,,0819.8,5.00,0.00,22.5,21.7,00.0,31.5,24.1,09.4,0000.0,0002.85,0003.93,0002.38
2022-01-05 13:26:00,,0819.9,4.99,0.00,22.4,21.6,00.0,31.5,24.1,09.4,0000.0,0002.83,0003.91,0002.36
2022-01-05 13:27:00,,0819.9,5.00,0.00,22.4,21.6,00.0,31.5,24.0,09.5,0000.0,0002.79,0003.87,0002.34
2022-01-05 13:28:00,,0819.9,5.01,0.00,22.4,22.0,00.0,31.5,24.1,09.5,0000.0,0002.74,0003.73,0002.33
2022-01-05 13:29:00,,0819.9,5.00,0.00,22.6,22.8,00.0,31.5,24.3,09.4,0000.0,0002.74,0003.78,0002.30
2022-01-05 13:30:00,,0819.9,5.00,0.00,22.7,23.3,00.0,31.5,24.6,09.3,0000.0,0002.73,0003.75,0002.28
2022-01-05 13:31:00,,0819.9,4.99,0.00,22.7,23.2,00.0,31.6,24.6,09.3,0000.0,0002.69,0003.75,0002.23
2022-01-05 13:32:00,,0819.9,4.99,0.00,22.7,22.9,00.0,31.6,24.6,09.3,0000.0,0002.61,0003.59,0002.19
2022-01-05 13:33:00,,0819.8,5.00,0.00,22.7,22.7,00.0,31.6,24.5,09.3,0000.0,0002.55,0003.50,0002.15
2022-01-05 13:34:00,,0819.7,5.02,0.00,22.7,22.5,00.0,31.6,24.4,09.3,0000.0,0002.51,0003.45,0002.13
2022-01-05 13:35:00,,0819.7,5.00,0.00,22.7,22.3,00.0,31.6,24.3,09.3,0000.0,0002.52,0003.45,0002.14
2022-01-05 13:36:00,,0819.8,4.99,0.00,22.6,22.1,00.0,31.6,24.2,09.2,0000.0,0002.59,0003.71,0002.16
2022-01-05 13:37:00,,0819.8,5.00,0.00,22.6,22.0,00.0,31.6,24.2,09.2,0000.0,0002.66,0003.87,0002.19
2022-01-05 13:38:00,,0819.7,5.00,0.00,22.6,21.9,00.0,31.6,24.2,09.2,0000.0,0002.68,0003.87,0002.21
2022-01-05 13:39:00,,0819.6,5.01,0.00,22.5,21.8,00.0,31.5,24.1,09.3,0000.0,0002.69,0003.98,0002.22
2022-01-05 13:40:00,,0819.4,4.99,0.00,22.5,21.7,00.0,31.5,24.1,09.3,0000.0,0002.73,0004.42,0002.26
2022-01-05 13:41:00,,0819.5,5.01,0.00,22.4,21.6,00.0,31.5,24.0,09.3,0000.0,0002.78,0005.82,0002.31
2022-01-05 13:42:00,,0819.6,5.00,0.00,22.4,21.6,00.0,31.5,24.0,09.3,0000.0,0002.85,0006.04,0002.37
2022-01-05 13:43:00,,0819.4,5.00,0.00,22.4,21.7,00.0,31.5,24.0,09.3,0000.0,0002.99,0006.46,0002.44
2022-01-05 13:44:00,,0819.3,4.99,0.00,22.5,22.3,00.0,31.5,24.2,09.3,0000.0,0003.09,0006.65,0002.53
2022-01-05 13:45:00,,0819.3,5.00,0.00,22.6,23.0,00.0,31.5,24.4,09.3,0000.0,0003.18,0006.89,0002.64
2022-01-05 13:46:00,,0819.3,5.01,0.00,22.7,23.2,00.0,31.6,24.5,09.3,0000.0,0003.24,0007.04,0002.74
2022-01-05 13:47:00,,0819.3,4.99,0.00,22.7,23.0,00.0,31.6,24.5,09.3,0000.0,0003.28,0007.21,0002.84
2022-01-05 13:48:00,,0819.4,5.00,0.00,22.7,22.7,00.0,31.6,24.4,09.3,0000.0,0003.36,0008.25,0002.95
2022-01-05 13:49:00,,0819.3,5.00,0.00,22.7,22.5,00.0,31.6,24.4,09.2,0000.0,0003.46,0008.65,0003.07
2022-01-05 13:50:00,,0819.3,5.00,0.00,22.6,22.3,00.0,31.6,24.3,09.2,0000.0,0003.54,0008.89,0003.16
2022-01-05 13:51:00,,0819.4,5.01,0.00,22.6,22.2,00.0,31.6,24.2,09.2,0000.0,0003.62,0009.27,0003.22
2022-01-05 13:52:00,,0819.3,5.00,0.00,22.6,22.0,00.0,31.6,24.2,09.2,0000.0,0003.73,0008.91,0003.27
2022-01-05 13:53:00,,0819.3,5.00,0.00,22.5,21.9,00.0,31.5,24.2,09.2,0000.0,0003.80,0008.99,0003.32
2022-01-05 13:54:00,,0819.2,5.01,0.00,22.5,21.8,00.0,31.5,24.1,09.2,0000.0,0003.87,0009.22,0003.36
2022-01-05 13:55:00,,0819.3,4.99,0.00,22.5,21.7,00.0,31.5,24.1,09.1,0000.0,0003.92,0009.37,0003.40
2022-01-05 13:56:00,,0819.4,4.99,0.00,22.4,21.6,00.0,31.5,24.0,09.2,0000.0,0004.00,0009.85,0003.43
2022-01-05 13:57:00,,0819.4,5.01,0.00,22.4,21.6,00.0,31.5,24.0,09.3,0000.0,0004.09,0010.08,0003.47
2022-01-05 13:58:00,,0819.3,5.01,0.00,22.4,21.7,00.0,31.5,24.0,09.3,0000.0,0004.18,0010.17,0003.50
2022-01-05 13:59:00,,0819.4,5.00,0.00,22.5,22.4,00.0,31.5,24.2,09.3,0000.0,0004.21,0009.47,0003.52
